Tracking 29018 objects as of 14-Jun-2024
HD Live streaming from Space Station
objects crossing your sky now

STARLINK-31307

Track STARLINK-31307 now!
10-day predictions
STARLINK-31307 is classified as:


NORAD ID: 59089
Int'l Code: 2024-041R
Perigee: 493.6 km
Apogee: 496.5 km
Inclination: 43.0 °
Period: 94.4 minutes
Semi major axis: 6866 km
RCS: Unknown
Launch date: February 29, 2024
Source: United States (US)
Launch site: AIR FORCE EASTERN TEST RANGE (AFETR)
Your satellite tracking list
Your tracking list is empty




NASA's NSSDC Master Catalog

Two Line Element Set (TLE):
1 59089U 24041R   24165.61697652  .00023529  00000-0  90519-3 0  9990
2 59089  43.0020 286.0029 0002095 269.8016  90.2594 15.25955338 17415
Source of the keplerian elements: AFSPC